QPF
0.05 0.05 0.05 0.04 0.04 0.06 0.08 0.09 0.10 0.11 0.11 0.09 0.06 0.06 0.06 0.03 0.06 0.13 0.11 0.05 0.03 0.03 0.04 0.04 0.05 0.05 0.05 0.06 0.06 0.06 0.05 0.04 0.04 0.04 0.04 0.04 0.02 0.01 0.01 0.02 0.01 0.01 0.00
0.02 0.03 0.04 0.03 0.03 0.03 0.05 0.06 0.09 0.11 0.12 0.11 0.08 0.07 0.05 0.04 0.04 0.06 0.12 0.10 0.05 0.05 0.05 0.06 0.08 0.08 0.07 0.06 0.06 0.06 0.07 0.06 0.05 0.04 0.03 0.04 0.03 0.02 0.01 0.01 0.01 0.00 0.00
0.01 0.01 0.02 0.02 0.02 0.02 0.03 0.03 0.04 0.07 0.08 0.09 0.08 0.07 0.06 0.05 0.07 0.06 0.07 0.09 0.11 0.09 0.07 0.07 0.09 0.09 0.08 0.08 0.07 0.07 0.08 0.08 0.07 0.04 0.03 0.03 0.03 0.02 0.01 0.01 0.01 0.00 0.00
0.00 0.00 0.00 0.00 0.01 0.00 0.01 0.01 0.02 0.04 0.05 0.06 0.07 0.05 0.05 0.04 0.04 0.05 0.04 0.06 0.12 0.13 0.10 0.08 0.07 0.06 0.06 0.09 0.12 0.12 0.11 0.09 0.07 0.06 0.04 0.03 0.03 0.02 0.02 0.01 0.01 0.00 0.00
0.01 0.00 0.00 0.00 0.00 0.00 0.00 0.00 0.01 0.02 0.03 0.03 0.03 0.03 0.02 0.03 0.03 0.04 0.03 0.04 0.07 0.10 0.08 0.07 0.05 0.05 0.08 0.12 0.13 0.12 0.10 0.08 0.07 0.06 0.06 0.05 0.04 0.03 0.02 0.01 0.01 0.00 0.00
0.01 0.00 0.00 0.00 0.00 0.00 0.00 0.01 0.01 0.02 0.02 0.02 0.01 0.02 0.01 0.01 0.01 0.02 0.02 0.03 0.05 0.04 0.05 0.08 0.09 0.06 0.08 0.11 0.10 0.10 0.10 0.09 0.08 0.07 0.06 0.05 0.05 0.04 0.03 0.02 0.01 0.01 0.00
0.00 0.00 0.00 0.00 0.00 0.00 0.01 0.00 0.00 0.01 0.00 0.00 0.00 0.01 0.01 0.00 0.00 0.00 0.01 0.02 0.02 0.02 0.04 0.05 0.06 0.07 0.07 0.06 0.06 0.07 0.09 0.11 0.11 0.09 0.07 0.06 0.06 0.05 0.04 0.03 0.02 0.02 0.01
0.00 0.00 0.00 0.00 0.00 0.00 0.00 0.00 0.00 0.00 0.01 0.00 0.00 0.01 0.01 0.01 0.01 0.00 0.00 0.01 0.01 0.01 0.02 0.02 0.03 0.05 0.05 0.11 0.08 0.08 0.10 0.12 0.13 0.12 0.09 0.07 0.05 0.04 0.04 0.04 0.03 0.03 0.02
0.00 0.00 0.00 0.00 0.00 0.00 0.00 0.00 0.00 0.00 0.00 0.00 0.00 0.00 0.01 0.02 0.02 0.00 0.00 0.00 0.00 0.00 0.00 0.01 0.01 0.03 0.04 0.08 0.11 0.09 0.08 0.08 0.10 0.11 0.11 0.09 0.07 0.04 0.04 0.05 0.05 0.03 0.03
0.00 0.00 0.00 0.00 0.00 0.00 0.00 0.00 0.00 0.00 0.00 0.00 0.00 0.00 0.00 0.01 0.01 0.02 0.01 0.00 0.00 0.00 0.00 0.00 0.01 0.01 0.02 0.04 0.06 0.05 0.04 0.04 0.07 0.10 0.11 0.09 0.07 0.05 0.05 0.06 0.07 0.07 0.05
0.00 0.00 0.00 0.00 0.00 0.00 0.00 0.00 0.00 0.00 0.00 0.00 0.00 0.00 0.00 0.00 0.00 0.00 0.01 0.00 0.00 0.00 0.00 0.00 0.00 0.00 0.01 0.02 0.05 0.02 0.01 0.01 0.02 0.04 0.05 0.06 0.06 0.06 0.06 0.07 0.09 0.10 0.10
0.00 0.00 0.00 0.00 0.00 0.00 0.00 0.00 0.00 0.00 0.00 0.00 0.00 0.00 0.00 0.00 0.00 0.00 0.00 0.00 0.00 0.00 0.00 0.00 0.00 0.00 0.00 0.01 0.01 0.00 0.00 0.00 0.01 0.01 0.02 0.03 0.04 0.05 0.06 0.07 0.08 0.11 0.12
0.00 0.00 0.00 0.00 0.00 0.00 0.00 0.00 0.00 0.00 0.00 0.00 0.00 0.00 0.00 0.00 0.00 0.00 0.00 0.00 0.00 0.00 0.00 0.00 0.00 0.00 0.00 0.00 0.00 0.00 0.00 0.00 0.00 0.00 0.01 0.01 0.01 0.02 0.02 0.04 0.06 0.08 0.10
0.00 0.00 0.00 0.00 0.00 0.00 0.00 0.00 0.00 0.00 0.00 0.00 0.00 0.00 0.00 0.00 0.00 0.00 0.00 0.00 0.00 0.00 0.00 0.00 0.00 0.00 0.00 0.00 0.00 0.00 0.00 0.00 0.00 0.00 0.00 0.00 0.01 0.01 0.01 0.01 0.02 0.03 0.04
0.00 0.00 0.00 0.00 0.00 0.00 0.00 0.00 0.00 0.00 0.00 0.00 0.00 0.00 0.00 0.00 0.00 0.00 0.00 0.00 0.00 0.00 0.00 0.00 0.00 0.00 0.00 0.00 0.00 0.00 0.00 0.00 0.00 0.00 0.00 0.00 0.00 0.00 0.00 0.00 0.01 0.01 0.02
0.00 0.00 0.00 0.00 0.00 0.00 0.00 0.00 0.00 0.00 0.00 0.00 0.00 0.00 0.00 0.00 0.00 0.00 0.00 0.00 0.00 0.00 0.00 0.00 0.00 0.00 0.00 0.00 0.00 0.00 0.00 0.00 0.00 0.00 0.00 0.00 0.00 0.00 0.00 0.00 0.00 0.00 0.00
0.00 0.00 0.00 0.00 0.00 0.00 0.00 0.00 0.00 0.00 0.00 0.00 0.00 0.00 0.00 0.00 0.00 0.00 0.00 0.00 0.00 0.00 0.00 0.00 0.00 0.00 0.00 0.00 0.00 0.00 0.00 0.00 0.00 0.00 0.00 0.00 0.00 0.00 0.00 0.00 0.00 0.00 0.00
0.01 0.00 0.00 0.00 0.00 0.00 0.00 0.00 0.00 0.00 0.00 0.00 0.00 0.00 0.00 0.00 0.00 0.00 0.00 0.00 0.00 0.00 0.00 0.00 0.00 0.00 0.00 0.00 0.00 0.00 0.00 0.00 0.00 0.00 0.00 0.00 0.00 0.00 0.00 0.00 0.00 0.00 0.00
0.01 0.00 0.00 0.00 0.00 0.00 0.00 0.00 0.00 0.00 0.00 0.00 0.00 0.00 0.00 0.00 0.00 0.00 0.00 0.00 0.00 0.00 0.00 0.00 0.00 0.00 0.00 0.00 0.00 0.00 0.00 0.00 0.00 0.00 0.00 0.00 0.00 0.00 0.00 0.00 0.00 0.00 0.00
0.02 0.01 0.01 0.01 0.00 0.00 0.00 0.00 0.00 0.00 0.00 0.00 0.00 0.00 0.00 0.00 0.00 0.00 0.00 0.00 0.00 0.01 0.01 0.00 0.00 0.00 0.00 0.00 0.00 0.00 0.00 0.00 0.00 0.00 0.00 0.00 0.00 0.00 0.00 0.00 0.00 0.00 0.00
0.03 0.02 0.02 0.01 0.01 0.01 0.01 0.00 0.00 0.00 0.00 0.00 0.00 0.00 0.00 0.00 0.00 0.01 0.00 0.01 0.01 0.01 0.01 0.00 0.00 0.00 0.00 0.01 0.00 0.00 0.00 0.00 0.00 0.00 0.00 0.00 0.00 0.00 0.00 0.00 0.00 0.00 0.00
0.04 0.04 0.03 0.02 0.01 0.01 0.01 0.01 0.01 0.00 0.01 0.01 0.02 0.02 0.01 0.01 0.01 0.01 0.00 0.01 0.01 0.01 0.01 0.00 0.00 0.01 0.01 0.01 0.01 0.00 0.00 0.00 0.00 0.00 0.00 0.00 0.00 0.00 0.00 0.00 0.00 0.00 0.00
0.07 0.06 0.06 0.05 0.03 0.03 0.02 0.02 0.02 0.01 0.00 0.01 0.02 0.03 0.02 0.01 0.03 0.04 0.03 0.02 0.01 0.01 0.01 0.00 0.00 0.00 0.01 0.01 0.02 0.01 0.01 0.01 0.01 0.00 0.01 0.00 0.00 0.00 0.00 0.00 0.00 0.00 0.00
0.09 0.08 0.08 0.07 0.06 0.04 0.04 0.04 0.04 0.02 0.01 0.01 0.01 0.02 0.03 0.02 0.03 0.05 0.06 0.05 0.04 0.02 0.01 0.01 0.00 0.00 0.00 0.01 0.01 0.01 0.01 0.01 0.01 0.00 0.00 0.00 0.00 0.00 0.00 0.00 0.00 0.00 0.00
0.06 0.05 0.05 0.05 0.04 0.04 0.04 0.04 0.04 0.02 0.01 0.02 0.02 0.03 0.04 0.04 0.04 0.05 0.06 0.06 0.06 0.04 0.02 0.02 0.01 0.01 0.00 0.01 0.01 0.01 0.01 0.01 0.00 0.00 0.00 0.00 0.00 0.00 0.00 0.00 0.00 0.00 0.00
0.05 0.06 0.06 0.05 0.05 0.05 0.05 0.05 0.04 0.02 0.02 0.02 0.03 0.04 0.04 0.04 0.04 0.04 0.05 0.06 0.06 0.04 0.06 0.06 0.05 0.02 0.01 0.01 0.01 0.01 0.01 0.01 0.00 0.00 0.00 0.01 0.00 0.01 0.01 0.00 0.00 0.00 0.00
MSLP
1015.59 1015.53 1015.47 1015.46 1015.54 1015.71 1015.98 1016.30 1016.62 1016.89 1017.07 1017.13 1017.09 1016.98 1016.87 1016.79 1016.79 1016.90 1017.12 1017.43 1017.82 1018.24 1018.66 1019.08 1019.48 1019.86 1020.23 1020.60 1020.97 1021.32 1021.66 1021.98 1022.27 1022.54 1022.78 1023.02 1023.24 1023.46 1023.67 1023.87 1024.04 1024.18 1024.28
1015.79 1015.72 1015.64 1015.61 1015.65 1015.80 1016.03 1016.32 1016.64 1016.92 1017.14 1017.26 1017.28 1017.24 1017.16 1017.08 1017.04 1017.08 1017.20 1017.41 1017.69 1018.02 1018.39 1018.79 1019.19 1019.60 1020.01 1020.42 1020.80 1021.17 1021.51 1021.83 1022.12 1022.39 1022.65 1022.91 1023.18 1023.44 1023.69 1023.91 1024.11 1024.26 1024.37
1016.08 1016.02 1015.94 1015.90 1015.93 1016.04 1016.23 1016.49 1016.78 1017.06 1017.29 1017.45 1017.53 1017.54 1017.49 1017.41 1017.34 1017.30 1017.33 1017.42 1017.58 1017.82 1018.12 1018.47 1018.87 1019.30 1019.74 1020.16 1020.57 1020.95 1021.29 1021.60 1021.88 1022.15 1022.42 1022.70 1023.00 1023.30 1023.59 1023.86 1024.09 1024.27 1024.40
1016.41 1016.37 1016.32 1016.29 1016.31 1016.40 1016.55 1016.77 1017.02 1017.28 1017.51 1017.69 1017.81 1017.85 1017.83 1017.76 1017.66 1017.56 1017.49 1017.47 1017.52 1017.66 1017.88 1018.18 1018.56 1018.98 1019.42 1019.87 1020.29 1020.67 1021.00 1021.30 1021.57 1021.83 1022.10 1022.39 1022.71 1023.04 1023.37 1023.69 1023.96 1024.18 1024.35
1016.71 1016.72 1016.71 1016.72 1016.75 1016.83 1016.95 1017.12 1017.32 1017.54 1017.76 1017.94 1018.08 1018.15 1018.15 1018.09 1017.98 1017.84 1017.70 1017.59 1017.55 1017.58 1017.72 1017.95 1018.28 1018.68 1019.11 1019.55 1019.97 1020.34 1020.66 1020.94 1021.20 1021.45 1021.71 1022.01 1022.34 1022.69 1023.05 1023.41 1023.72 1023.99 1024.20
1016.93 1017.00 1017.06 1017.12 1017.18 1017.26 1017.36 1017.49 1017.65 1017.82 1018.00 1018.17 1018.31 1018.40 1018.43 1018.40 1018.29 1018.14 1017.96 1017.79 1017.66 1017.61 1017.66 1017.82 1018.09 1018.44 1018.83 1019.25 1019.65 1020.00 1020.31 1020.58 1020.81 1021.05 1021.30 1021.59 1021.91 1022.28 1022.66 1023.04 1023.39 1023.70 1023.95
1017.07 1017.20 1017.33 1017.45 1017.55 1017.65 1017.74 1017.84 1017.95 1018.07 1018.21 1018.35 1018.49 1018.60 1018.66 1018.66 1018.59 1018.45 1018.26 1018.06 1017.88 1017.76 1017.73 1017.81 1018.00 1018.28 1018.63 1019.00 1019.37 1019.70 1019.99 1020.24 1020.46 1020.68 1020.91 1021.18 1021.50 1021.85 1022.23 1022.62 1022.98 1023.31 1023.60
1017.11 1017.30 1017.49 1017.67 1017.83 1017.96 1018.06 1018.14 1018.21 1018.28 1018.38 1018.50 1018.63 1018.75 1018.84 1018.89 1018.86 1018.75 1018.58 1018.38 1018.17 1018.00 1017.91 1017.91 1018.02 1018.23 1018.51 1018.83 1019.15 1019.46 1019.73 1019.96 1020.17 1020.38 1020.60 1020.85 1021.14 1021.46 1021.82 1022.18 1022.54 1022.86 1023.15
1017.08 1017.31 1017.56 1017.80 1018.01 1018.18 1018.30 1018.37 1018.41 1018.46 1018.52 1018.60 1018.72 1018.86 1018.98 1019.06 1019.09 1019.03 1018.90 1018.72 1018.51 1018.31 1018.17 1018.11 1018.14 1018.28 1018.49 1018.75 1019.03 1019.30 1019.55 1019.78 1019.98 1020.17 1020.38 1020.60 1020.86 1021.14 1021.45 1021.77 1022.08 1022.38 1022.65
1017.01 1017.26 1017.55 1017.84 1018.10 1018.31 1018.45 1018.53 1018.57 1018.59 1018.63 1018.69 1018.80 1018.93 1019.08 1019.20 1019.27 1019.27 1019.19 1019.04 1018.84 1018.64 1018.47 1018.36 1018.33 1018.40 1018.54 1018.74 1018.98 1019.22 1019.46 1019.68 1019.87 1020.06 1020.25 1020.45 1020.67 1020.91 1021.16 1021.41 1021.66 1021.90 1022.12
1016.93 1017.18 1017.48 1017.80 1018.11 1018.36 1018.54 1018.64 1018.69 1018.71 1018.73 1018.78 1018.87 1019.00 1019.15 1019.30 1019.40 1019.45 1019.41 1019.30 1019.14 1018.94 1018.76 1018.62 1018.54 1018.55 1018.63 1018.78 1018.97 1019.19 1019.41 1019.62 1019.82 1020.01 1020.19 1020.37 1020.55 1020.74 1020.92 1021.11 1021.28 1021.45 1021.60
1016.82 1017.06 1017.37 1017.71 1018.05 1018.34 1018.56 1018.70 1018.77 1018.80 1018.82 1018.85 1018.93 1019.05 1019.19 1019.35 1019.48 1019.55 1019.56 1019.49 1019.35 1019.18 1018.99 1018.84 1018.73 1018.69 1018.73 1018.83 1018.98 1019.16 1019.36 1019.57 1019.77 1019.95 1020.13 1020.30 1020.45 1020.60 1020.73 1020.85 1020.95 1021.05 1021.13
1016.69 1016.91 1017.22 1017.57 1017.93 1018.26 1018.52 1018.70 1018.81 1018.86 1018.89 1018.92 1018.98 1019.08 1019.21 1019.36 1019.49 1019.58 1019.61 1019.56 1019.46 1019.31 1019.14 1018.98 1018.85 1018.79 1018.78 1018.84 1018.95 1019.10 1019.27 1019.46 1019.65 1019.84 1020.01 1020.17 1020.32 1020.44 1020.53 1020.61 1020.66 1020.69 1020.72
1016.50 1016.71 1017.01 1017.37 1017.75 1018.12 1018.42 1018.65 1018.79 1018.87 1018.92 1018.95 1019.00 1019.08 1019.19 1019.31 1019.43 1019.52 1019.56 1019.54 1019.46 1019.33 1019.18 1019.03 1018.90 1018.80 1018.77 1018.78 1018.85 1018.96 1019.10 1019.26 1019.44 1019.62 1019.79 1019.95 1020.09 1020.20 1020.29 1020.34 1020.36 1020.36 1020.35
1016.23 1016.44 1016.74 1017.11 1017.51 1017.90 1018.24 1018.51 1018.70 1018.81 1018.88 1018.92 1018.96 1019.02 1019.11 1019.20 1019.30 1019.38 1019.42 1019.41 1019.35 1019.24 1019.11 1018.97 1018.84 1018.74 1018.67 1018.65 1018.67 1018.73 1018.83 1018.96 1019.10 1019.26 1019.43 1019.59 1019.73 1019.85 1019.95 1020.00 1020.03 1020.03 1020.00
1015.86 1016.08 1016.39 1016.78 1017.20 1017.61 1017.98 1018.28 1018.50 1018.64 1018.73 1018.79 1018.83 1018.88 1018.94 1019.01 1019.08 1019.14 1019.18 1019.17 1019.13 1019.05 1018.95 1018.82 1018.70 1018.59 1018.51 1018.45 1018.42 1018.43 1018.47 1018.55 1018.65 1018.78 1018.93 1019.08 1019.23 1019.37 1019.48 1019.57 1019.61 1019.64 1019.63
1015.40 1015.65 1015.98 1016.38 1016.80 1017.23 1017.61 1017.93 1018.17 1018.34 1018.45 1018.51 1018.56 1018.60 1018.65 1018.71 1018.76 1018.81 1018.84 1018.84 1018.82 1018.76 1018.68 1018.58 1018.48 1018.37 1018.27 1018.18 1018.11 1018.07 1018.05 1018.07 1018.12 1018.20 1018.32 1018.45 1018.60 1018.75 1018.88 1019.00 1019.08 1019.14 1019.18
1014.88 1015.16 1015.52 1015.92 1016.34 1016.76 1017.14 1017.46 1017.71 1017.89 1018.01 1018.09 1018.14 1018.19 1018.23 1018.28 1018.33 1018.37 1018.40 1018.41 1018.40 1018.37 1018.32 1018.25 1018.17 1018.07 1017.97 1017.87 1017.77 1017.68 1017.61 1017.56 1017.56 1017.58 1017.65 1017.75 1017.87 1018.02 1018.16 1018.30 1018.42 1018.52 1018.60
1014.34 1014.66 1015.02 1015.43 1015.84 1016.23 1016.58 1016.88 1017.12 1017.29 1017.42 1017.50 1017.57 1017.62 1017.67 1017.72 1017.77 1017.82 1017.86 1017.88 1017.89 1017.89 1017.87 1017.84 1017.78 1017.71 1017.62 1017.52 1017.40 1017.28 1017.17 1017.07 1017.00 1016.97 1016.97 1017.02 1017.11 1017.22 1017.36 1017.50 1017.63 1017.76 1017.88
1013.85 1014.18 1014.55 1014.94 1015.32 1015.67 1015.98 1016.24 1016.45 1016.60 1016.72 1016.80 1016.87 1016.94 1017.00 1017.06 1017.12 1017.17 1017.22 1017.26 1017.30 1017.32 1017.33 1017.33 1017.31 1017.27 1017.21 1017.12 1017.01 1016.88 1016.74 1016.60 1016.48 1016.38 1016.33 1016.31 1016.34 1016.40 1016.50 1016.62 1016.75 1016.88 1017.02
1013.46 1013.80 1014.15 1014.51 1014.85 1015.15 1015.40 1015.60 1015.76 1015.88 1015.97 1016.05 1016.12 1016.20 1016.27 1016.34 1016.41 1016.47 1016.53 1016.58 1016.62 1016.67 1016.70 1016.73 1016.75 1016.75 1016.72 1016.66 1016.57 1016.45 1016.30 1016.14 1015.98 1015.84 1015.72 1015.64 1015.60 1015.60 1015.64 1015.71 1015.81 1015.93 1016.06
1013.24 1013.56 1013.88 1014.19 1014.47 1014.71 1014.90 1015.04 1015.15 1015.22 1015.29 1015.35 1015.41 1015.48 1015.55 1015.63 1015.70 1015.76 1015.82 1015.87 1015.91 1015.96 1016.01 1016.05 1016.10 1016.12 1016.13 1016.11 1016.05 1015.96 1015.83 1015.67 1015.49 1015.31 1015.15 1015.01 1014.90 1014.82 1014.79 1014.80 1014.85 1014.94 1015.06
1013.21 1013.49 1013.78 1014.04 1014.27 1014.45 1014.57 1014.65 1014.70 1014.73 1014.75 1014.79 1014.83 1014.89 1014.95 1015.01 1015.07 1015.12 1015.15 1015.18 1015.20 1015.23 1015.26 1015.31 1015.35 1015.40 1015.43 1015.45 1015.42 1015.36 1015.26 1015.12 1014.95 1014.76 1014.57 1014.38 1014.22 1014.09 1013.99 1013.94 1013.93 1013.97 1014.06
1013.40 1013.63 1013.88 1014.10 1014.27 1014.40 1014.48 1014.51 1014.50 1014.49 1014.47 1014.47 1014.48 1014.51 1014.54 1014.57 1014.59 1014.60 1014.58 1014.56 1014.53 1014.51 1014.50 1014.51 1014.54 1014.58 1014.62 1014.65 1014.66 1014.63 1014.56 1014.46 1014.31 1014.13 1013.94 1013.73 1013.54 1013.37 1013.22 1013.12 1013.07 1013.07 1013.12
1013.77 1013.96 1014.17 1014.36 1014.50 1014.60 1014.64 1014.63 1014.59 1014.53 1014.48 1014.43 1014.40 1014.38 1014.36 1014.34 1014.30 1014.23 1014.15 1014.05 1013.94 1013.84 1013.76 1013.70 1013.67 1013.67 1013.69 1013.72 1013.74 1013.74 1013.70 1013.64 1013.52 1013.38 1013.20 1013.01 1012.82 1012.64 1012.47 1012.35 1012.27 1012.24 1012.27
1014.26 1014.43 1014.62 1014.79 1014.92 1015.00 1015.02 1015.00 1014.93 1014.85 1014.75 1014.66 1014.57 1014.49 1014.40 1014.30 1014.17 1014.02 1013.84 1013.63 1013.42 1013.22 1013.03 1012.88 1012.77 1012.71 1012.68 1012.67 1012.68 1012.69 1012.68 1012.65 1012.58 1012.48 1012.35 1012.19 1012.03 1011.86 1011.71 1011.59 1011.51 1011.47 1011.48
Thickness
5746 5745 5742 5741 5741 5741 5740 5739 5738 5738 5737 5737 5737 5737 5737 5737 5736 5733 5731 5731 5730 5728 5726 5724 5722 5721 5720 5718 5717 5716 5715 5715 5714 5713 5713 5713 5713 5712 5712 5712 5711 5711 5711
5742 5742 5741 5740 5740 5739 5738 5737 5737 5736 5736 5735 5735 5735 5735 5734 5733 5732 5730 5728 5727 5726 5725 5724 5722 5720 5719 5718 5717 5716 5715 5714 5713 5712 5712 5712 5711 5711 5711 5711 5710 5710 5710
5740 5740 5740 5739 5738 5738 5737 5736 5736 5735 5735 5734 5733 5734 5733 5733 5732 5730 5729 5728 5726 5724 5723 5723 5721 5720 5719 5718 5716 5715 5715 5714 5712 5711 5711 5711 5710 5710 5710 5710 5709 5709 5709
5738 5738 5738 5737 5736 5737 5737 5736 5735 5734 5733 5732 5732 5732 5732 5731 5731 5730 5729 5729 5726 5724 5723 5722 5721 5720 5719 5717 5715 5714 5714 5713 5711 5710 5710 5709 5709 5709 5709 5708 5708 5708 5708
5736 5736 5735 5734 5735 5736 5736 5735 5733 5731 5730 5730 5731 5731 5731 5730 5730 5730 5730 5729 5727 5725 5724 5722 5721 5720 5719 5717 5715 5713 5712 5712 5710 5709 5708 5708 5708 5708 5707 5707 5707 5707 5707
5734 5734 5734 5733 5734 5734 5733 5731 5730 5730 5729 5729 5730 5730 5730 5731 5730 5729 5729 5729 5728 5726 5725 5723 5721 5720 5719 5717 5716 5713 5712 5711 5709 5708 5707 5707 5707 5707 5706 5706 5706 5706 5706
5732 5732 5734 5732 5732 5731 5730 5730 5729 5729 5728 5729 5726 5725 5728 5731 5730 5729 5729 5728 5728 5727 5726 5724 5722 5720 5719 5718 5716 5715 5713 5711 5709 5708 5707 5706 5706 5706 5706 5706 5706 5705 5705
5731 5732 5731 5732 5730 5729 5729 5729 5727 5726 5729 5729 5724 5721 5719 5720 5725 5730 5728 5726 5726 5726 5725 5724 5722 5721 5719 5718 5716 5715 5713 5711 5709 5708 5707 5706 5706 5705 5705 5705 5704 5704 5704
5730 5729 5729 5730 5729 5730 5727 5727 5726 5725 5724 5727 5727 5722 5716 5713 5717 5723 5725 5724 5724 5723 5724 5724 5722 5721 5719 5717 5716 5714 5712 5711 5709 5708 5707 5706 5706 5705 5704 5704 5703 5703 5703
5730 5729 5728 5728 5728 5728 5726 5727 5725 5726 5723 5723 5725 5725 5722 5719 5714 5712 5717 5721 5722 5721 5721 5722 5720 5719 5717 5716 5714 5712 5710 5709 5708 5707 5707 5706 5705 5704 5703 5703 5703 5702 5702
5730 5729 5728 5727 5727 5726 5725 5725 5724 5724 5724 5721 5722 5723 5722 5721 5720 5713 5710 5713 5717 5719 5719 5718 5718 5716 5715 5713 5711 5709 5708 5707 5706 5706 5705 5704 5704 5704 5703 5702 5702 5701 5702
5730 5729 5728 5727 5726 5725 5725 5724 5723 5722 5721 5720 5719 5720 5719 5717 5715 5714 5710 5710 5712 5715 5717 5717 5715 5714 5713 5711 5709 5706 5705 5704 5703 5702 5702 5702 5702 5702 5701 5701 5701 5701 5701
5730 5730 5730 5726 5725 5724 5724 5723 5721 5720 5720 5718 5717 5717 5718 5718 5717 5714 5710 5708 5709 5712 5714 5714 5714 5712 5711 5709 5705 5703 5701 5700 5699 5699 5698 5698 5698 5698 5699 5699 5699 5699 5699
5735 5733 5730 5727 5725 5724 5723 5721 5721 5719 5718 5716 5716 5715 5713 5715 5715 5713 5709 5705 5701 5704 5708 5710 5713 5712 5709 5706 5703 5700 5698 5697 5696 5695 5695 5694 5694 5694 5695 5695 5696 5696 5696
5735 5733 5730 5727 5725 5723 5722 5721 5718 5718 5717 5714 5713 5712 5710 5712 5712 5711 5709 5706 5699 5693 5696 5704 5707 5709 5707 5704 5701 5698 5697 5694 5693 5692 5692 5691 5691 5691 5691 5691 5691 5692 5692
5734 5732 5729 5727 5724 5722 5720 5718 5716 5716 5714 5712 5710 5709 5708 5708 5709 5708 5707 5705 5701 5695 5691 5699 5701 5704 5703 5702 5698 5695 5694 5693 5691 5690 5689 5689 5688 5688 5688 5687 5687 5688 5688
5733 5731 5728 5726 5723 5721 5719 5716 5713 5713 5711 5709 5708 5707 5705 5704 5702 5703 5703 5701 5699 5696 5690 5693 5698 5700 5699 5697 5695 5693 5691 5690 5689 5689 5688 5688 5687 5686 5685 5685 5684 5684 5684
5731 5729 5727 5724 5722 5720 5718 5714 5711 5710 5709 5707 5705 5704 5702 5701 5699 5697 5696 5695 5695 5694 5690 5687 5689 5692 5693 5693 5692 5690 5689 5688 5688 5689 5688 5687 5685 5684 5683 5682 5681 5681 5681
5729 5727 5725 5722 5720 5718 5716 5713 5710 5708 5707 5705 5704 5702 5700 5698 5695 5694 5693 5691 5690 5690 5689 5685 5685 5687 5688 5689 5688 5687 5686 5685 5685 5686 5686 5685 5684 5682 5681 5680 5679 5678 5678
5726 5724 5723 5721 5719 5716 5714 5712 5709 5706 5705 5703 5702 5701 5698 5696 5694 5691 5689 5687 5685 5683 5683 5681 5681 5681 5682 5684 5683 5681 5680 5681 5681 5682 5684 5684 5682 5680 5679 5678 5677 5676 5675
5724 5722 5720 5718 5716 5713 5712 5709 5706 5705 5702 5700 5699 5698 5696 5695 5693 5690 5687 5685 5682 5679 5677 5676 5676 5676 5677 5676 5676 5677 5675 5676 5678 5679 5678 5679 5679 5677 5675 5674 5673 5673 5672
5719 5718 5715 5713 5711 5710 5709 5705 5703 5700 5699 5697 5695 5694 5693 5691 5690 5687 5684 5682 5678 5674 5673 5671 5671 5671 5672 5673 5672 5671 5669 5667 5667 5673 5671 5673 5674 5673 5673 5673 5672 5672 5670
5712 5711 5709 5707 5704 5702 5699 5697 5694 5692 5691 5690 5689 5687 5686 5688 5686 5684 5681 5677 5675 5672 5669 5666 5665 5666 5666 5666 5664 5663 5662 5660 5661 5664 5662 5662 5666 5666 5668 5669 5669 5669 5667
5702 5700 5699 5697 5695 5694 5690 5688 5685 5682 5681 5681 5680 5679 5677 5677 5677 5674 5673 5672 5671 5670 5667 5663 5660 5662 5661 5660 5657 5655 5654 5655 5657 5658 5655 5652 5656 5658 5662 5663 5663 5663 5662
5692 5690 5689 5687 5685 5683 5680 5677 5673 5672 5671 5670 5670 5670 5668 5667 5666 5663 5661 5661 5661 5663 5664 5662 5660 5659 5657 5654 5650 5646 5645 5643 5645 5650 5651 5648 5650 5651 5653 5656 5657 5656 5656
5680 5678 5676 5675 5674 5671 5669 5665 5661 5660 5658 5657 5657 5657 5656 5653 5651 5649 5647 5648 5648 5651 5651 5651 5650 5650 5649 5647 5644 5639 5637 5634 5636 5640 5646 5643 5643 5643 5643 5649 5650 5650 5649